Tracking 31027 objects as of 19-Jul-2025
HD Live streaming from Space Station
objects crossing your sky now

ONEWEB-0288

Track ONEWEB-0288 now!
10-day predictions
ONEWEB-0288 is classified as:


NORAD ID: 49078
Int'l Code: 2021-075D
Perigee: 1,219.6 km
Apogee: 1,222.1 km
Inclination: 87.9 °
Period: 109.7 minutes
Semi major axis: 7591 km
RCS: Unknown
Launch date: August 21, 2021
Source: United Kingdom (UK)
Launch site: TYURATAM MISSILE AND SPACE COMPLEX (TTMTR)
Your satellite tracking list
STARLINK-32625
Track 1 satellite(s)




NASA's NSSDC Master Catalog

Two Line Element Set (TLE):
1 49078U 21075D   25199.32790245 -.00000492  00000-0 -14030-2 0  9998
2 49078  87.8858  57.0368 0001683  79.1071 281.0247 13.12441425191390
Source of the keplerian elements: AFSPC